SCP
0 0 0 -0 -0 -0 0 -0 -0 -0 -0 -0 -0 0 0 0 0 0 0 0 0 0 0 0 0 0 0
0 -0 0 0 -0 0 0 0 -0 -0 -0 -0 0 0 0 0 0 0 0 0 0 0 0 0 0 0 0
0 0 0 0 0 0 0 0 0 0 0 0 0 0 0 0 0 0 0 0 0 0 0 0 0 0 0
0 0 0 0 0 0 0 0 0 0 0 0 0 0 0 0 0 0 0 0 0 0 0 0 0 0 0
0 0 0 0 0 0 0 0 0 0 0 0 0 0 0 0 0 0 0 0 0 0 0 0 0 0 0
0 0 0 0 0 0 0 0 0 0 0 0 0 0 0 0 0 0 0 0 0 0 0 0 0 0 0
0 0 0 0 0 0 0 0 0 0 0 0 0 0 0 0 0 0 0 0 0 0 0 0 0 0 0
0 0 0 0 0 0 0 0 0 0 0 0 0 0 0 0 0 0 0 0 0 0 0 0 0 0 0
0 0 0 0 0 0 0 0 0 0 0 0 0 0 0 0 0 0 0 0 0 0 0 0 0 0 0
0 0 0 0 0 0 0 0 0 0 0 0 0 0 0 0 0 0 0 0 0 0 0 0 0 0 0
0 0 0 0 0 0 0 0 0 0 0 0 0 0 0 0 0 0 0 0 0 0 0 0 0 0 0
0 0 0 0 0 0 0 0 0 0 0 0 0 0 0 0 0 0 0 0 0 0 0 0 0 0 0
0 0 0 0 0 0 0 0 0 0 0 0 0 0 0 0 0 0 0 0 0 0 0 0 0 0 0
0 0 0 0 0 0 0 0 0 0 0 0 0 0 0 0 0 0 0 0 0 0 0 0 0 0 0
0 0 0 0 0 0 0 0 0 0 0 0 0 0 0 0 0 0 0 0 0 0 0 0 0 0 0
0 0 0 0 0 0 0 0 0 0 0 0 0 0 0 0 0 0 0 0 0 0 0 0 0 0 0
Wind_Speed_500mb
23 20 16 13 10 7 3 2 4 5 7 10 13 17 23 23 20 21 21 22 22 19 16 12 9 8 7
27 23 21 20 16 12 8 7 7 7 8 7 10 18 25 23 27 30 23 22 20 19 15 11 9 8 7
30 26 31 27 23 18 13 11 10 11 8 5 6 18 24 20 20 22 27 29 21 22 20 16 12 10 9
27 31 20 16 20 17 16 13 10 7 6 3 18 20 24 21 21 20 20 25 30 29 27 22 18 16 15
26 26 25 24 19 16 16 11 11 8 10 15 22 20 23 23 22 22 24 27 28 32 37 33 28 24 22
25 24 24 26 32 23 19 18 16 11 5 10 12 12 11 16 21 24 25 27 30 32 33 38 37 35 33
27 28 26 29 29 25 21 23 18 14 10 10 9 14 19 19 20 26 27 25 25 27 34 33 37 37 35
27 28 29 30 30 27 24 18 16 18 19 20 22 24 24 20 16 23 23 20 24 26 28 31 33 34 34
30 31 32 28 28 21 18 16 17 13 14 12 12 15 17 21 19 12 17 17 24 25 26 30 29 29 31
29 30 30 27 27 26 23 20 20 15 9 7 4 9 7 4 11 15 16 20 25 25 22 24 23 21 20
33 32 33 32 26 23 23 24 16 12 12 6 7 7 7 9 10 11 12 17 18 19 20 20 19 20 21
31 30 30 29 25 27 29 23 17 14 11 8 8 7 3 3 5 7 10 16 19 22 21 21 15 16 14
35 35 33 31 29 27 23 20 19 17 15 12 9 8 6 5 10 12 14 18 22 25 21 19 13 12 12
35 33 36 33 31 28 28 27 24 20 18 14 11 11 11 13 13 14 16 20 24 30 30 17 6 6 7
37 34 34 35 36 35 33 30 26 20 16 13 11 11 12 13 16 19 21 24 28 29 32 23 9 9 41
38 41 41 38 36 32 28 23 18 15 12 11 12 12 14 17 18 22 25 27 27 30 28 27 23 22 14
Wind_Direction_500mb
212 209 212 226 243 244 271 349 353 315 328 347 2 6 2 354 2 12 11 14 22 27 31 38 41 26 28
212 226 229 234 234 241 258 283 291 296 290 305 339 9 9 9 12 7 13 15 15 17 17 11 13 4 1
199 213 225 229 238 245 257 270 285 299 300 248 343 3 8 6 1 7 8 3 7 16 12 3 354 335 335
224 218 202 221 243 252 255 259 249 225 244 255 338 339 344 340 344 358 357 356 2 358 358 354 349 337 327
225 223 205 189 209 222 227 206 193 226 278 307 320 325 317 321 328 339 351 353 352 350 351 356 351 342 334
221 206 200 189 203 207 192 190 199 201 230 274 299 305 309 320 320 331 332 339 340 350 352 350 350 348 344
189 190 185 185 200 191 199 214 225 239 247 279 292 301 303 294 299 306 314 320 326 333 337 339 340 340 346
196 191 186 186 192 208 213 220 227 243 252 260 267 279 285 289 288 304 307 308 323 323 322 324 327 325 328
184 182 184 182 189 183 193 198 205 213 232 236 262 288 294 296 305 305 311 318 312 310 311 315 310 315 316
172 175 178 183 183 181 186 184 181 173 187 207 234 247 263 280 308 308 313 307 309 314 317 318 323 322 325
165 172 175 175 171 174 169 169 170 170 170 181 199 220 234 268 291 300 299 298 304 313 314 312 318 312 310
162 168 174 172 178 176 167 166 162 165 165 165 170 168 194 279 323 333 323 326 337 332 338 340 347 348 351
162 169 170 166 170 172 168 158 149 143 136 135 124 109 94 56 39 32 8 1 355 1 5 54 66 334 10
164 166 171 176 169 163 148 141 134 129 125 119 101 82 64 46 41 30 18 9 5 3 12 29 5 305 331
173 177 173 163 154 147 141 137 129 122 112 99 82 62 47 32 22 20 17 12 17 15 14 24 19 339 326
164 162 162 156 153 147 143 135 126 111 93 76 62 50 35 27 19 16 16 14 12 16 19 30 27 360 336
Wind_Speed_850mb
23 20 16 13 10 7 3 2 4 5 7 10 13 17 23 23 20 21 21 22 22 19 16 12 9 8 7
27 23 21 20 16 12 8 7 7 7 8 7 10 18 25 23 27 30 23 22 20 19 15 11 9 8 7
30 26 31 27 23 18 13 11 10 11 8 5 6 18 24 20 20 22 27 29 21 22 20 16 12 10 9
27 31 20 16 20 17 16 13 10 7 6 3 18 20 24 21 21 20 20 25 30 29 27 22 18 16 15
26 26 25 24 19 16 16 11 11 8 10 15 22 20 23 23 22 22 24 27 28 32 37 33 28 24 22
25 24 24 26 32 23 19 18 16 11 5 10 12 12 11 16 21 24 25 27 30 32 33 38 37 35 33
27 28 26 29 29 25 21 23 18 14 10 10 9 14 19 19 20 26 27 25 25 27 34 33 37 37 35
27 28 29 30 30 27 24 18 16 18 19 20 22 24 24 20 16 23 23 20 24 26 28 31 33 34 34
30 31 32 28 28 21 18 16 17 13 14 12 12 15 17 21 19 12 17 17 24 25 26 30 29 29 31
29 30 30 27 27 26 23 20 20 15 9 7 4 9 7 4 11 15 16 20 25 25 22 24 23 21 20
33 32 33 32 26 23 23 24 16 12 12 6 7 7 7 9 10 11 12 17 18 19 20 20 19 20 21
31 30 30 29 25 27 29 23 17 14 11 8 8 7 3 3 5 7 10 16 19 22 21 21 15 16 14
35 35 33 31 29 27 23 20 19 17 15 12 9 8 6 5 10 12 14 18 22 25 21 19 13 12 12
35 33 36 33 31 28 28 27 24 20 18 14 11 11 11 13 13 14 16 20 24 30 30 17 6 6 7
37 34 34 35 36 35 33 30 26 20 16 13 11 11 12 13 16 19 21 24 28 29 32 23 9 9 41
38 41 41 38 36 32 28 23 18 15 12 11 12 12 14 17 18 22 25 27 27 30 28 27 23 22 14
Wind_Direction_850mb
212 209 212 226 243 244 271 349 353 315 328 347 2 6 2 354 2 12 11 14 22 27 31 38 41 26 28
212 226 229 234 234 241 258 283 291 296 290 305 339 9 9 9 12 7 13 15 15 17 17 11 13 4 1
199 213 225 229 238 245 257 270 285 299 300 248 343 3 8 6 1 7 8 3 7 16 12 3 354 335 335
224 218 202 221 243 252 255 259 249 225 244 255 338 339 344 340 344 358 357 356 2 358 358 354 349 337 327
225 223 205 189 209 222 227 206 193 226 278 307 320 325 317 321 328 339 351 353 352 350 351 356 351 342 334
221 206 200 189 203 207 192 190 199 201 230 274 299 305 309 320 320 331 332 339 340 350 352 350 350 348 344
189 190 185 185 200 191 199 214 225 239 247 279 292 301 303 294 299 306 314 320 326 333 337 339 340 340 346
196 191 186 186 192 208 213 220 227 243 252 260 267 279 285 289 288 304 307 308 323 323 322 324 327 325 328
184 182 184 182 189 183 193 198 205 213 232 236 262 288 294 296 305 305 311 318 312 310 311 315 310 315 316
172 175 178 183 183 181 186 184 181 173 187 207 234 247 263 280 308 308 313 307 309 314 317 318 323 322 325
165 172 175 175 171 174 169 169 170 170 170 181 199 220 234 268 291 300 299 298 304 313 314 312 318 312 310
162 168 174 172 178 176 167 166 162 165 165 165 170 168 194 279 323 333 323 326 337 332 338 340 347 348 351
162 169 170 166 170 172 168 158 149 143 136 135 124 109 94 56 39 32 8 1 355 1 5 54 66 334 10
164 166 171 176 169 163 148 141 134 129 125 119 101 82 64 46 41 30 18 9 5 3 12 29 5 305 331
173 177 173 163 154 147 141 137 129 122 112 99 82 62 47 32 22 20 17 12 17 15 14 24 19 339 326
164 162 162 156 153 147 143 135 126 111 93 76 62 50 35 27 19 16 16 14 12 16 19 30 27 360 336